[[{"header":{"parameterUnit":"m.s-1","parameterCategory":2,"la1":30.2991,"la2":30.254,"lo1":-89.0895,"lo2":-89.0444,"dy":0.0017,"dx":0.0017,"nx":28,"ny":28,"refTime":"2024-03-15T21:00:00:Z","depth":"0","parameterNumber":2,"parameterNumberName":"U-component_of_CURRENTS"},"data":[0,0,0,0,0,0,0,0,0,0,0,0,0,0,0,0,0,0,0,0,0,0,0,0,0,0,0,0,0,0,0,0,0,0,0,0,0,0,0,0,0,0,0,0,0,0,0,0,0,0,0,0,0,0,0,0,0,0,-0.3143,-0.3142,0,-0.3083,-0.3082,-0.3081,-0.3066,-0.3067,-0.3068,-0.3069,-0.2918,-0.2913,-0.2909,0,0,0,0,0,0,0,0,0,0,0,0,0,-0.3098,-0.31,-0.3143,-0.3142,-0.3142,-0.3083,-0.3082,-0.3081,-0.3066,-0.3067,-0.3068,-0.3069,-0.292,-0.2914,-0.2908,0,0,0,0,0,0,0,0,0,0,0,0,0,-0.3082,-0.31,-0.3143,-0.3131,-0.3129,-0.3084,-0.3082,-0.3081,-0.3066,-0.3067,-0.3068,-0.3069,-0.2921,-0.2914,-0.2907,-0.284,0,0,-0.2886,-0.2883,0,0,0,0,0,0,0,0,-0.3083,-0.3084,-0.3133,-0.3132,-0.313,-0.3087,-0.3011,-0.2997,-0.3066,-0.3086,-0.3069,-0.307,-0.2968,-0.2957,-0.2939,-0.2833,-0.2827,-0.2885,-0.2881,-0.2878,-0.2876,0,0,0,0,0,0,0,-0.3085,-0.3085,-0.3115,-0.3133,-0.3131,-0.3079,-0.3079,-0.3008,-0.3016,-0.3084,-0.3084,-0.3084,-0.2966,-0.2946,-0.2935,-0.2825,-0.2885,-0.2879,-0.2875,-0.2872,-0.2756,-0.2757,0,0,0,0,0,0,-0.3107,-0.3087,-0.3117,-0.3113,-0.3114,-0.308,-0.3079,-0.3096,-0.3019,-0.301,-0.3083,-0.3083,-0.2957,-0.2943,-0.2929,-0.2944,-0.2878,-0.2871,-0.2867,-0.2755,-0.2756,-0.2757,0,0,0,0,0,0,-0.3107,-0.3111,-0.3119,-0.3101,-0.3099,-0.3081,-0.3099,-0.3095,-0.3085,-0.302,-0.3009,-0.308,-0.2957,-0.2939,-0.2893,-0.2935,-0.2868,-0.2862,-0.2753,-0.2755,-0.2757,-0.291,0,0,0,0,0,0,-0.3106,-0.3112,-0.3117,-0.3103,-0.3101,-0.3119,-0.3098,-0.3093,-0.3084,-0.3085,-0.3012,-0.2999,-0.2957,-0.2905,-0.2886,-0.2924,-0.2856,-0.2752,-0.2754,-0.2756,-0.2904,-0.2917,-0.2928,0,0,0,0,0,-0.3105,-0.3114,-0.3119,-0.3121,-0.3116,-0.312,-0.3114,-0.31,-0.3083,-0.3091,-0.3044,-0.3002,-0.2907,-0.2899,-0.2877,-0.2914,-0.2751,-0.2753,-0.2756,-0.2898,-0.2914,-0.2928,0,0,0,0,0,0,-0.3072,-0.3113,-0.3118,-0.3132,-0.314,-0.312,-0.3112,-0.3102,-0.3068,-0.3059,-0.2998,-0.2982,-0.2961,-0.2906,-0.29,-0.2888,-0.2828,-0.2826,-0.2943,-0.2958,-0.297,-0.3028,-0.285,0,0,0,0,0,-0.3075,-0.3106,-0.3125,-0.3131,-0.3141,-0.3126,-0.3118,-0.3115,-0.3089,-0.3076,-0.3031,-0.2982,-0.295,-0.2931,-0.2882,-0.2858,-0.2802,-0.2872,-0.2885,-0.2896,-0.2929,-0.2903,-0.2917,-0.2766,-0.2766,-0.2766,0,0,-0.3055,-0.3085,-0.3095,-0.3128,-0.3125,-0.3162,-0.3124,-0.3124,-0.3159,-0.3059,-0.3068,-0.3009,-0.295,-0.2944,-0.2931,-0.2907,-0.2895,-0.2899,-0.2909,-0.2937,-0.2907,-0.2922,-0.2935,-0.2768,-0.2767,-0.2767,0,0,-0.3055,-0.3069,-0.3108,-0.3136,-0.316,-0.3165,-0.3175,-0.3171,-0.3176,-0.3164,-0.3122,-0.3106,-0.3022,-0.303,-0.3012,-0.3057,-0.2956,-0.3022,-0.3139,-0.3114,-0.3127,-0.3138,-0.3032,-0.3033,-0.3038,-0.3039,-0.3039,0,-0.3024,-0.31,-0.311,-0.3166,-0.3203,-0.3182,-0.3239,-0.3239,-0.322,-0.3233,-0.3187,-0.3132,-0.3083,-0.3121,-0.315,-0.3093,-0.302,-0.3091,-0.3133,-0.3143,-0.3152,-0.3041,-0.304,-0.3046,-0.3045,-0.3045,-0.3044,0,-0.3078,-0.314,-0.316,-0.325,-0.3281,-0.3319,-0.3351,-0.3365,-0.3351,-0.335,-0.3359,-0.3297,-0.3271,-0.3262,-0.3218,-0.3269,-0.3172,-0.3146,-0.3104,-0.3177,-0.3054,-0.305,-0.3057,-0.3055,-0.3052,-0.305,0,0,-0.3003,-0.3174,-0.3179,-0.3246,-0.3341,-0.3356,-0.3441,-0.3504,-0.3514,-0.3515,-0.3528,-0.3538,-0.3487,-0.3467,-0.3413,-0.3416,-0.34,-0.3317,-0.3312,-0.3226,-0.327,-0.3207,-0.3194,-0.3369,-0.3371,-0.3372,-0.314,0,-0.3044,-0.319,-0.3265,-0.3374,-0.3451,-0.3499,-0.3562,-0.3606,-0.3601,-0.3589,-0.3595,-0.3554,-0.3569,-0.3513,-0.3546,-0.3396,-0.3403,-0.3461,-0.32,-0.3192,-0.3142,-0.3195,-0.3079,-0.2865,-0.3135,-0.3134,-0.3133,0,-0.307,-0.3181,-0.3334,-0.3464,-0.3492,-0.3539,-0.3616,-0.3664,-0.3686,-0.3672,-0.3696,-0.3632,-0.3642,-0.361,-0.3524,-0.3542,-0.3451,-0.3364,-0.3352,-0.3252,-0.3126,-0.2844,-0.2846,-0.2811,-0.3126,-0.3126,-0.3127,0,-0.3036,-0.32,-0.3334,-0.339,-0.3543,-0.3588,-0.3628,-0.3679,-0.3661,-0.3692,-0.3621,-0.367,-0.3575,-0.3553,-0.3424,-0.344,-0.3275,-0.3255,-0.3135,-0.3123,-0.2958,-0.2932,-0.2919,-0.3247,-0.3247,-0.3248,-0.3248,0,-0.3074,-0.3145,-0.3312,-0.3392,-0.3437,-0.3556,-0.3555,-0.3611,-0.3606,-0.3552,-0.3627,-0.356,-0.3554,-0.3456,-0.3401,-0.3241,-0.3263,-0.3169,-0.3089,-0.3,-0.2982,-0.289,-0.291,-0.3239,-0.3241,-0.3243,-0.3244,0,-0.3016,-0.3154,-0.3266,-0.3429,-0.3435,-0.3452,-0.3439,-0.3405,-0.346,-0.3376,-0.3366,-0.3394,-0.3313,-0.3286,-0.3171,-0.3138,-0.2966,-0.2987,-0.2852,-0.2767,-0.2643,-0.2675,-0.2568,-0.2499,-0.2789,-0.2787,-0.2785,0,-0.3003,-0.3086,-0.3232,-0.3215,-0.3271,-0.3277,-0.3238,-0.3305,-0.3258,-0.3267,-0.3196,-0.3148,-0.3111,-0.2948,-0.2899,-0.279,-0.283,-0.2622,-0.27,-0.2646,-0.2621,-0.2649,-0.2602,-0.2484,-0.248,-0.2476,-0.2473,0,-0.294,-0.3002,-0.3094,-0.3082,-0.3045,-0.299,-0.2958,-0.2909,-0.2979,-0.2954,-0.2938,-0.2926,-0.2839,-0.2723,-0.2624,-0.2564,-0.256,-0.2546,-0.2531,-0.2447,-0.2432,-0.232,-0.2576,-0.2441,-0.2445,-0.2447,-0.2449,-0.245,-0.2806,-0.2841,-0.2928,-0.2883,-0.2812,-0.2698,-0.261,-0.262,-0.2569,-0.2542,-0.2651,-0.2622,-0.2579,-0.245,-0.2381,-0.2226,-0.2319,-0.2173,-0.2218,-0.2252,-0.2224,-0.2404,-0.2183,-0.2185,-0.2186,-0.2187,-0.2189,0,-0.2608,-0.2683,-0.2675,-0.2616,-0.2445,-0.2481,-0.2387,-0.2308,-0.2248,-0.2306,-0.2313,-0.2301,-0.2177,-0.2153,-0.2016,-0.1922,-0.1892,-0.189,-0.1906,-0.1876,-0.2033,-0.2063,-0.1758,-0.1759,-0.1759,-0.1759,-0.1759,-0.1759,-0.2503,-0.2484,-0.2535,-0.2258,-0.2172,-0.1923,-0.1851,-0.1829,-0.1842,-0.1839,-0.188,-0.1951,-0.1938,-0.2015,-0.1862,-0.1772,-0.174,-0.1686,-0.1729,-0.1858,-0.1889,-0.1918,-0.1953,-0.163,-0.163,-0.1493,-0.1492,-0.1492]},{"header":{"parameterUnit":"m.s-1","parameterCategory":2,"la1":30.2991,"la2":30.254,"lo1":-89.0895,"lo2":-89.0444,"dy":0.0017,"dx":0.0017,"nx":28,"ny":28,"refTime":"2024-03-15T21:00:00:Z","depth":"0","parameterNumber":3,"parameterNumberName":"V-component_of_CURRENTS"},"data":[0,0,0,0,0,0,0,0,0,0,0,0,0,0,0,0,0,0,0,0,0,0,0,0,0,0,0,0,0,0,0,0,0,0,0,0,0,0,0,0,0,0,0,0,0,0,0,0,0,0,0,0,0,0,0,0,0,0,0.0176,0.0177,0,0.0294,0.0295,0.0296,0.0339,0.0338,0.0338,0.0338,0.0475,0.0479,0.0482,0,0,0,0,0,0,0,0,0,0,0,0,0,0.0036,0.0038,0.0176,0.0177,0.0179,0.0293,0.0295,0.0297,0.0339,0.0338,0.0338,0.0338,0.0473,0.0478,0.0483,0,0,0,0,0,0,0,0,0,0,0,0,0,0.0119,0.0038,0.0175,0.0214,0.0219,0.0293,0.0295,0.0297,0.0339,0.0338,0.0338,0.0337,0.0472,0.0478,0.0483,0.0531,0,0,0.0502,0.0504,0,0,0,0,0,0,0,0,0.0114,0.0124,0.0207,0.0212,0.0217,0.0301,0.0296,0.0376,0.0339,0.0293,0.0338,0.0337,0.0419,0.043,0.0452,0.0537,0.0543,0.0502,0.0506,0.0508,0.051,0,0,0,0,0,0,0,0.0108,0.0119,0.0222,0.0209,0.0215,0.0242,0.0253,0.0311,0.0357,0.0297,0.03,0.0315,0.0422,0.0446,0.0455,0.0545,0.0502,0.0507,0.0511,0.0513,0.0659,0.066,0,0,0,0,0,0,0.0093,0.0114,0.0218,0.0225,0.0164,0.0245,0.0257,0.0274,0.0357,0.0369,0.0315,0.0316,0.0436,0.0448,0.046,0.0491,0.0508,0.0514,0.0517,0.0659,0.0659,0.066,0,0,0,0,0,0,0.009,0.0101,0.0213,0.0172,0.0188,0.0248,0.0267,0.0277,0.03,0.037,0.0382,0.0327,0.0436,0.0452,0.0505,0.0498,0.0517,0.0522,0.0659,0.0659,0.066,0.0573,0,0,0,0,0,0,0.0085,0.01,0.0103,0.0171,0.019,0.0251,0.0268,0.028,0.031,0.0312,0.0385,0.0397,0.0437,0.0495,0.0511,0.0507,0.0527,0.0658,0.0659,0.0659,0.0575,0.057,0.0566,0,0,0,0,0,0.008,0.0089,0.0103,0.0115,0.0195,0.0251,0.0263,0.0303,0.031,0.0321,0.0365,0.0395,0.051,0.0501,0.0519,0.0516,0.0658,0.0659,0.0659,0.0577,0.0571,0.0566,0,0,0,0,0,0,0.0028,0.0097,0.0113,0.0141,0.0188,0.0258,0.0273,0.0301,0.0346,0.0345,0.0405,0.0421,0.0464,0.0508,0.0497,0.0561,0.0587,0.0591,0.0518,0.0513,0.0509,0.0493,0.0532,0,0,0,0,0,0.0018,0.0044,0.011,0.013,0.0152,0.0211,0.0237,0.0265,0.0316,0.0334,0.0385,0.0437,0.0483,0.051,0.0562,0.0603,0.064,0.0612,0.0607,0.0603,0.0603,0.0659,0.0658,0.0662,0.0662,0.0662,0,0,0.0003,0.0044,0.0058,0.0121,0.0159,0.0176,0.0225,0.0261,0.0273,0.0344,0.0373,0.0427,0.0492,0.053,0.0553,0.0563,0.0618,0.0604,0.0599,0.0602,0.0659,0.0659,0.0658,0.0662,0.0662,0.0662,0,0,-0.0027,0.0021,0.0022,0.0058,0.0112,0.0154,0.016,0.0228,0.0255,0.0297,0.0343,0.0392,0.0468,0.0509,0.0539,0.0545,0.0592,0.0562,0.0524,0.0577,0.0577,0.0577,0.0599,0.0603,0.0557,0.0557,0.0556,0,-0.0057,-0.0046,0.0031,0.0036,0.0049,0.0135,0.0123,0.0176,0.0249,0.0272,0.0292,0.0405,0.0455,0.0504,0.0499,0.0533,0.0564,0.0534,0.0569,0.057,0.0572,0.0595,0.06,0.0552,0.0553,0.0553,0.0554,0,-0.0088,-0.0088,-0.0082,-0.0052,-0.002,-0.001,0.0064,0.0104,0.0148,0.0197,0.0263,0.0344,0.0406,0.043,0.0465,0.0504,0.052,0.0555,0.0575,0.0566,0.0591,0.0597,0.0547,0.0548,0.0549,0.055,0,0,-0.015,-0.0118,-0.0121,-0.0143,-0.0074,-0.0058,-0.0018,0.0035,0.0057,0.0143,0.0171,0.0261,0.0317,0.0357,0.0418,0.0467,0.0494,0.0508,0.0512,0.0515,0.0591,0.0643,0.0655,0.0536,0.0537,0.0538,0.0594,0,-0.0215,-0.0257,-0.0203,-0.0245,-0.0269,-0.0176,-0.0144,-0.0076,-0.0002,0.0058,0.0165,0.0218,0.0288,0.0313,0.0376,0.0467,0.0511,0.0474,0.0614,0.0617,0.0653,0.0665,0.0693,0.0751,0.06,0.0601,0.0602,0,-0.0275,-0.0303,-0.0364,-0.0366,-0.0362,-0.0353,-0.0296,-0.0259,-0.013,-0.0068,0.0027,0.0121,0.021,0.027,0.0423,0.0397,0.0483,0.0559,0.0563,0.065,0.0682,0.0744,0.0768,0.0924,0.0612,0.0611,0.0611,0,-0.0393,-0.0417,-0.0482,-0.0483,-0.0453,-0.0448,-0.0418,-0.0305,-0.0272,-0.0151,-0.0112,0.0033,0.0089,0.0233,0.0404,0.0407,0.0575,0.0597,0.0727,0.073,0.0803,0.0811,0.0987,0.0706,0.0706,0.0706,0.0706,0,-0.0497,-0.0547,-0.0544,-0.0585,-0.0635,-0.0566,-0.0571,-0.05,-0.0398,-0.0362,-0.0197,-0.0131,0.0085,0.0223,0.0376,0.0575,0.0556,0.0725,0.0758,0.0772,0.0776,0.0956,0.1011,0.0708,0.0707,0.0707,0.0707,0,-0.0615,-0.0612,-0.0693,-0.07,-0.0698,-0.0736,-0.0687,-0.0668,-0.0563,-0.051,-0.048,-0.0272,-0.0076,0.0151,0.0383,0.0525,0.0815,0.0789,0.0779,0.0812,0.1074,0.1121,0.1313,0.1412,0.0926,0.0928,0.093,0,-0.0675,-0.0737,-0.08,-0.0836,-0.0841,-0.0867,-0.0857,-0.0765,-0.0729,-0.0586,-0.0562,-0.0363,-0.0177,0.019,0.0482,0.0769,0.0898,0.0943,0.0969,0.1103,0.1181,0.1208,0.1279,0.1014,0.1016,0.1018,0.1019,0,-0.0802,-0.0824,-0.0891,-0.0975,-0.1,-0.102,-0.1001,-0.0997,-0.0871,-0.0795,-0.0648,-0.0494,-0.0109,0.0266,0.0648,0.0817,0.106,0.0987,0.1144,0.1285,0.1309,0.1415,0.0936,0.1035,0.1033,0.1032,0.1031,0.1031,-0.0873,-0.0959,-0.1036,-0.1105,-0.1131,-0.1136,-0.1142,-0.1087,-0.1028,-0.0871,-0.0715,-0.0439,0.0094,0.0663,0.086,0.1258,0.1213,0.137,0.1416,0.1431,0.1542,0.1085,0.1218,0.1218,0.1217,0.1217,0.1217,0,-0.0958,-0.1049,-0.1142,-0.121,-0.1238,-0.1219,-0.1196,-0.1154,-0.1076,-0.0883,-0.0688,-0.0088,0.043,0.0902,0.1472,0.1679,0.1727,0.1769,0.1821,0.1876,0.1494,0.1515,0.1699,0.1699,0.1699,0.1699,0.1698,0.1698,-0.1002,-0.1133,-0.1192,-0.1274,-0.1297,-0.129,-0.127,-0.1191,-0.1037,-0.0688,-0.0345,-0.005,0.0633,0.1534,0.2037,0.207,0.225,0.2213,0.2324,0.2062,0.2028,0.1996,0.2033,0.2322,0.2323,0.2698,0.2701,0.2704]}],[{"header":{"parameterUnit":"m.s-1","parameterCategory":2,"la1":30.2991,"la2":30.254,"lo1":-89.0895,"lo2":-89.0444,"dy":0.0017,"dx":0.0017,"nx":28,"ny":28,"refTime":"2024-03-15T21:00:00:Z","depth":"2","parameterNumber":2,"parameterNumberName":"U-component_of_CURRENTS"},"data":[0,0,0,0,0,0,0,0,0,0,0,0,0,0,0,0,0,0,0,0,0,0,0,0,0,0,0,0,0,0,0,0,0,0,0,0,0,0,0,0,0,0,0,0,0,0,0,0,0,0,0,0,0,0,0,0,0,0,-0.2314,-0.2315,0,-0.2388,-0.2389,-0.239,-0.2458,-0.2459,-0.246,-0.2461,-0.2613,-0.2616,-0.2619,0,0,0,0,0,0,0,0,0,0,0,0,0,-0.2282,-0.2282,-0.2314,-0.2315,-0.2316,-0.2388,-0.2389,-0.239,-0.2458,-0.2459,-0.246,-0.2461,-0.2611,-0.2615,-0.2619,0,0,0,0,0,0,0,0,0,0,0,0,0,-0.2319,-0.2282,-0.2314,-0.2359,-0.2364,-0.2388,-0.2389,-0.239,-0.2458,-0.2459,-0.2461,-0.2462,-0.261,-0.2615,-0.262,-0.2622,0,0,-0.2634,-0.2636,0,0,0,0,0,0,0,0,-0.2317,-0.232,-0.2352,-0.2356,-0.2362,-0.2416,-0.2434,-0.2472,-0.2458,-0.2421,-0.2461,-0.2463,-0.2554,-0.2563,-0.2572,-0.2629,-0.2635,-0.2635,-0.2637,-0.264,-0.2641,0,0,0,0,0,0,0,-0.2314,-0.2317,-0.2343,-0.2353,-0.2359,-0.2394,-0.24,-0.2441,-0.248,-0.2425,-0.243,-0.2439,-0.2557,-0.2567,-0.2576,-0.2637,-0.2634,-0.2639,-0.2642,-0.2643,-0.2817,-0.2818,0,0,0,0,0,0,-0.2302,-0.2314,-0.234,-0.2345,-0.2343,-0.2393,-0.24,-0.2397,-0.2478,-0.2491,-0.2438,-0.2442,-0.2558,-0.257,-0.2582,-0.2709,-0.2639,-0.2644,-0.2647,-0.2815,-0.2817,-0.2819,0,0,0,0,0,0,-0.2301,-0.2303,-0.2337,-0.2333,-0.234,-0.2392,-0.2388,-0.2398,-0.2429,-0.2487,-0.2502,-0.2463,-0.256,-0.2575,-0.2692,-0.2711,-0.2646,-0.265,-0.2813,-0.2816,-0.2818,-0.2887,0,0,0,0,0,0,-0.2299,-0.2302,-0.2298,-0.2332,-0.234,-0.2371,-0.2387,-0.2398,-0.2432,-0.2439,-0.2513,-0.2527,-0.2562,-0.2685,-0.2697,-0.2716,-0.2654,-0.2811,-0.2814,-0.2817,-0.2882,-0.2891,-0.2899,0,0,0,0,0,-0.2298,-0.2292,-0.2297,-0.2301,-0.2332,-0.2371,-0.2379,-0.242,-0.2432,-0.2452,-0.2541,-0.2526,-0.2711,-0.2693,-0.2705,-0.2726,-0.2809,-0.2813,-0.2817,-0.2878,-0.2889,-0.2899,0,0,0,0,0,0,-0.2267,-0.23,-0.2306,-0.2307,-0.2343,-0.2384,-0.2398,-0.2425,-0.2503,-0.2515,-0.2576,-0.2598,-0.2683,-0.2706,-0.2683,-0.2783,-0.2745,-0.2752,-0.2787,-0.2798,-0.2806,-0.2769,-0.2658,0,0,0,0,0,-0.2257,-0.227,-0.2302,-0.2305,-0.2317,-0.2357,-0.2377,-0.2406,-0.2473,-0.2506,-0.2573,-0.264,-0.2701,-0.2757,-0.2796,-0.2881,-0.2835,-0.2893,-0.2901,-0.2908,-0.2886,-0.2867,-0.2871,-0.2832,-0.2832,-0.2832,0,0,-0.2251,-0.2265,-0.2276,-0.2302,-0.2324,-0.2361,-0.2373,-0.2405,-0.246,-0.2511,-0.2618,-0.2662,-0.2724,-0.2814,-0.2852,-0.285,-0.2894,-0.2913,-0.2919,-0.2892,-0.2872,-0.2875,-0.2878,-0.2834,-0.2834,-0.2833,0,0,-0.2247,-0.2249,-0.2263,-0.2296,-0.2332,-0.2362,-0.2375,-0.2433,-0.2482,-0.2587,-0.2628,-0.2717,-0.2812,-0.2879,-0.292,-0.3,-0.292,-0.2985,-0.3029,-0.3013,-0.3015,-0.3016,-0.2951,-0.2946,-0.3015,-0.3015,-0.3015,0,-0.2241,-0.2253,-0.2275,-0.2301,-0.2335,-0.2366,-0.2403,-0.2455,-0.2558,-0.2605,-0.2631,-0.2773,-0.2845,-0.2948,-0.2991,-0.3019,-0.296,-0.2991,-0.3021,-0.3021,-0.3021,-0.2955,-0.2948,-0.3019,-0.3018,-0.3018,-0.3018,0,-0.225,-0.2272,-0.2282,-0.233,-0.2371,-0.2402,-0.2475,-0.2533,-0.2592,-0.2645,-0.2748,-0.2854,-0.2941,-0.2974,-0.3025,-0.3064,-0.3003,-0.3012,-0.2989,-0.3029,-0.2957,-0.2949,-0.3024,-0.3023,-0.3022,-0.3021,0,0,-0.221,-0.2278,-0.2287,-0.2332,-0.239,-0.2439,-0.2515,-0.2598,-0.2651,-0.2746,-0.2817,-0.2959,-0.2981,-0.3027,-0.3082,-0.3096,-0.3082,-0.3059,-0.3056,-0.2981,-0.298,-0.2922,-0.2907,-0.3076,-0.3076,-0.3075,-0.2925,0,-0.2213,-0.2276,-0.2311,-0.2399,-0.2437,-0.2501,-0.2565,-0.2648,-0.2724,-0.28,-0.2886,-0.2966,-0.3011,-0.3059,-0.3082,-0.3071,-0.3063,-0.3118,-0.2962,-0.2957,-0.2891,-0.2898,-0.2707,-0.2555,-0.2916,-0.2915,-0.2914,0,-0.2199,-0.2254,-0.2322,-0.2438,-0.246,-0.2524,-0.2635,-0.27,-0.2787,-0.2839,-0.2914,-0.2956,-0.303,-0.3047,-0.303,-0.3045,-0.3013,-0.2992,-0.2986,-0.2895,-0.2884,-0.2577,-0.2526,-0.2899,-0.2901,-0.2902,-0.2903,0,-0.2148,-0.2271,-0.2331,-0.2371,-0.2485,-0.2549,-0.2622,-0.2711,-0.2752,-0.2859,-0.2877,-0.295,-0.2983,-0.2957,-0.2961,-0.2975,-0.288,-0.2905,-0.2808,-0.2801,-0.259,-0.2566,-0.2857,-0.2857,-0.2857,-0.2858,-0.2858,0,-0.211,-0.2176,-0.2331,-0.2355,-0.2447,-0.2548,-0.2613,-0.2696,-0.2763,-0.2785,-0.2891,-0.2909,-0.2953,-0.2928,-0.2914,-0.2824,-0.2848,-0.2785,-0.2761,-0.2609,-0.2591,-0.2858,-0.286,-0.2852,-0.2853,-0.2855,-0.2856,0,-0.2019,-0.2105,-0.2207,-0.2365,-0.24,-0.2487,-0.2585,-0.2621,-0.2704,-0.2732,-0.2758,-0.2843,-0.2823,-0.2833,-0.2788,-0.2755,-0.2693,-0.2657,-0.2458,-0.2415,-0.2621,-0.2629,-0.2504,-0.2501,-0.2498,-0.2496,-0.2494,0,-0.1988,-0.2016,-0.2178,-0.2222,-0.2296,-0.2405,-0.2422,-0.2558,-0.259,-0.2682,-0.2679,-0.2708,-0.2704,-0.2618,-0.2567,-0.2483,-0.2594,-0.2262,-0.2291,-0.2596,-0.2587,-0.2599,-0.261,-0.2019,-0.2013,-0.2009,-0.2005,0,-0.1923,-0.1972,-0.2024,-0.209,-0.217,-0.2241,-0.2319,-0.2334,-0.2459,-0.2489,-0.2526,-0.2538,-0.2499,-0.235,-0.2272,-0.2213,-0.2267,-0.2166,-0.2507,-0.217,-0.2136,-0.2129,-0.2156,-0.1964,-0.1968,-0.1971,-0.1973,-0.1975,-0.1856,-0.1872,-0.1892,-0.196,-0.2038,-0.2067,-0.2063,-0.2141,-0.2161,-0.2184,-0.2293,-0.2238,-0.2241,-0.203,-0.1932,-0.1855,-0.2016,-0.1926,-0.1941,-0.196,-0.1963,-0.193,-0.1715,-0.1717,-0.172,-0.1722,-0.1723,0,-0.1742,-0.1723,-0.175,-0.181,-0.1829,-0.1912,-0.1947,-0.1913,-0.1894,-0.1942,-0.1945,-0.1765,-0.1671,-0.1681,-0.1499,-0.1473,-0.1467,-0.1416,-0.1403,-0.1444,-0.148,-0.1461,-0.1078,-0.1076,-0.1074,-0.1072,0,0,-0.1671,-0.1589,-0.1579,-0.156,-0.1609,-0.1568,-0.1564,-0.154,-0.1539,-0.1475,-0.1441,-0.1562,-0.1618,-0.1339,-0.1284,-0.1147,-0.1283,-0.1093,-0.1609,-0.1633,-0.1667,-0.177,-0.1786,0,0,0,0,0]},{"header":{"parameterUnit":"m.s-1","parameterCategory":2,"la1":30.2991,"la2":30.254,"lo1":-89.0895,"lo2":-89.0444,"dy":0.0017,"dx":0.0017,"nx":28,"ny":28,"refTime":"2024-03-15T21:00:00:Z","depth":"2","parameterNumber":3,"parameterNumberName":"V-component_of_CURRENTS"},"data":[0,0,0,0,0,0,0,0,0,0,0,0,0,0,0,0,0,0,0,0,0,0,0,0,0,0,0,0,0,0,0,0,0,0,0,0,0,0,0,0,0,0,0,0,0,0,0,0,0,0,0,0,0,0,0,0,0,0,-0.0304,-0.0304,0,-0.0224,-0.0223,-0.0222,-0.018,-0.0181,-0.0181,-0.0181,-0.0078,-0.0075,-0.0072,0,0,0,0,0,0,0,0,0,0,0,0,0,-0.0337,-0.0337,-0.0304,-0.0304,-0.0303,-0.0224,-0.0223,-0.0221,-0.018,-0.0181,-0.0181,-0.0181,-0.0079,-0.0075,-0.0072,0,0,0,0,0,0,0,0,0,0,0,0,0,-0.0295,-0.0337,-0.0305,-0.0274,-0.0271,-0.0224,-0.0222,-0.0221,-0.018,-0.0181,-0.0181,-0.0181,-0.008,-0.0076,-0.0071,-0.0042,0,0,-0.0058,-0.0056,0,0,0,0,0,0,0,0,-0.0298,-0.0294,-0.0279,-0.0276,-0.0272,-0.0214,-0.0196,-0.016,-0.018,-0.0213,-0.0181,-0.0181,-0.0122,-0.0114,-0.0097,-0.0037,-0.0032,-0.0058,-0.0055,-0.0054,-0.0052,0,0,0,0,0,0,0,-0.0301,-0.0297,-0.0271,-0.0278,-0.0274,-0.0235,-0.023,-0.0189,-0.0166,-0.021,-0.0207,-0.0201,-0.012,-0.0101,-0.0094,-0.0031,-0.0058,-0.0054,-0.0052,-0.005,0.0072,0.0073,0,0,0,0,0,0,-0.0318,-0.03,-0.0273,-0.0269,-0.0287,-0.0235,-0.0229,-0.0231,-0.0167,-0.0158,-0.0201,-0.0199,-0.0108,-0.0099,-0.009,-0.0037,-0.0054,-0.005,-0.0047,0.0072,0.0073,0.0073,0,0,0,0,0,0,-0.032,-0.0317,-0.0277,-0.0283,-0.0275,-0.0235,-0.0237,-0.0229,-0.0214,-0.016,-0.015,-0.0195,-0.0108,-0.0096,-0.0047,-0.0033,-0.0048,-0.0044,0.0071,0.0072,0.0073,0.0061,0,0,0,0,0,0,-0.0321,-0.0318,-0.0327,-0.0285,-0.0276,-0.0259,-0.0237,-0.0228,-0.0211,-0.0208,-0.0151,-0.0142,-0.0107,-0.0053,-0.0042,-0.0028,-0.004,0.007,0.0071,0.0073,0.006,0.0061,0.0062,0,0,0,0,0,-0.0323,-0.0337,-0.0328,-0.0325,-0.0289,-0.026,-0.0251,-0.0221,-0.0211,-0.0207,-0.0158,-0.0144,-0.0038,-0.0049,-0.0036,-0.002,0.0069,0.0071,0.0072,0.006,0.0061,0.0062,0,0,0,0,0,0,-0.036,-0.0333,-0.0322,-0.033,-0.0301,-0.0254,-0.0249,-0.0226,-0.0185,-0.0182,-0.0129,-0.0116,-0.0069,-0.0043,-0.0057,0.0018,0.0016,0.002,0.0002,0.0004,0.0005,-0.0028,-0.0037,0,0,0,0,0,-0.0373,-0.0377,-0.0339,-0.0347,-0.0335,-0.0292,-0.0277,-0.0256,-0.0214,-0.0197,-0.0153,-0.0104,-0.0052,-0.0025,0.0017,0.0062,0.0085,0.0078,0.0079,0.008,0.0062,0.0129,0.0135,0.0078,0.0078,0.0078,0,0,-0.0394,-0.0377,-0.0382,-0.0355,-0.0331,-0.032,-0.0284,-0.0267,-0.0252,-0.0191,-0.0156,-0.0101,-0.004,0.0011,0.0034,0.0035,0.0108,0.0082,0.0082,0.0063,0.0132,0.0137,0.0142,0.0079,0.0079,0.0079,0,0,-0.0431,-0.0419,-0.0431,-0.0409,-0.0376,-0.0346,-0.0345,-0.0296,-0.0269,-0.0222,-0.0172,-0.0103,-0.0039,0.0021,0.0057,0.0089,0.0108,0.0093,0.0077,0.0143,0.0148,0.0153,0.0184,0.0192,0.0096,0.0096,0.0096,0,-0.0459,-0.0468,-0.0429,-0.0427,-0.0418,-0.0363,-0.0369,-0.0328,-0.0268,-0.0243,-0.0219,-0.0092,-0.0029,0.0046,0.0062,0.0092,0.011,0.0069,0.0144,0.0149,0.0154,0.0185,0.0194,0.0096,0.0096,0.0096,0.0096,0,-0.0494,-0.0504,-0.0508,-0.049,-0.0469,-0.0468,-0.041,-0.0381,-0.0337,-0.0289,-0.0209,-0.0107,-0.0034,0.0007,0.0048,0.0115,0.0108,0.0136,0.0138,0.0159,0.0191,0.02,0.0095,0.0095,0.0096,0.0096,0,0,-0.0556,-0.0541,-0.0545,-0.0547,-0.0506,-0.0492,-0.0464,-0.0419,-0.0395,-0.031,-0.0266,-0.014,-0.0084,-0.0039,0.0035,0.0103,0.0175,0.0124,0.0128,0.0148,0.0287,0.0315,0.0327,0.0209,0.0211,0.0212,0.0293,0,-0.0601,-0.0633,-0.0598,-0.0616,-0.0627,-0.0565,-0.0542,-0.0488,-0.0421,-0.036,-0.024,-0.0167,-0.0101,-0.0052,0.0026,0.0138,0.0197,0.0148,0.0269,0.0271,0.0289,0.0339,0.0301,0.0373,0.0302,0.0304,0.0305,0,-0.0644,-0.0662,-0.0703,-0.0686,-0.0682,-0.0672,-0.0625,-0.0592,-0.0492,-0.0436,-0.0341,-0.0251,-0.0128,-0.0073,0.011,0.0067,0.0164,0.025,0.0256,0.0287,0.0317,0.0343,0.0392,0.032,0.0319,0.0318,0.0317,0,-0.0716,-0.0725,-0.0767,-0.0764,-0.0738,-0.073,-0.0702,-0.0622,-0.0588,-0.0482,-0.0438,-0.0296,-0.0206,-0.0071,0.0116,0.0108,0.0306,0.0327,0.0436,0.0437,0.0431,0.043,0.0444,0.0444,0.0444,0.0444,0.0444,0,-0.0778,-0.0805,-0.0805,-0.0827,-0.0852,-0.0798,-0.0789,-0.0738,-0.0658,-0.0615,-0.0483,-0.041,-0.0201,-0.0056,0.0092,0.0293,0.0294,0.0433,0.0471,0.0426,0.0424,0.0396,0.0389,0.0447,0.0446,0.0446,0.0445,0,-0.0851,-0.0855,-0.0898,-0.0895,-0.089,-0.0906,-0.0859,-0.084,-0.0759,-0.0697,-0.0666,-0.0489,-0.0296,-0.009,0.015,0.0272,0.0457,0.0524,0.0441,0.0469,0.0539,0.053,0.0643,0.0645,0.0646,0.0648,0.0649,0,-0.0897,-0.0935,-0.0963,-0.0984,-0.0984,-0.0989,-0.0984,-0.0908,-0.0875,-0.0739,-0.0709,-0.0517,-0.0362,-0.0013,0.0239,0.0495,0.0505,0.0596,0.0595,0.0539,0.0564,0.0553,0.0543,0.0576,0.0576,0.0576,0.0577,0,-0.0982,-0.0993,-0.1026,-0.1076,-0.1087,-0.1095,-0.1072,-0.1062,-0.0959,-0.0889,-0.0758,-0.0627,-0.0283,0.0008,0.0341,0.0481,0.0552,0.0611,0.0601,0.0532,0.0484,0.0505,0.0496,0.058,0.0579,0.0579,0.0579,0.0579,-0.1034,-0.108,-0.1115,-0.1154,-0.1173,-0.1178,-0.1175,-0.1129,-0.1076,-0.0935,-0.081,-0.0583,-0.0297,0.0182,0.0418,0.0628,0.0622,0.0671,0.0666,0.0663,0.0641,0.0599,0.0711,0.0711,0.0711,0.0712,0.0712,0,-0.1086,-0.1126,-0.1178,-0.1214,-0.1244,-0.1232,-0.121,-0.1175,-0.1111,-0.0947,-0.0794,-0.0471,-0.0134,0.0163,0.0506,0.0708,0.0685,0.0728,0.0663,0.0658,0.0654,0.063,0.0698,0.0699,0.0699,0.07,0,0,-0.111,-0.1168,-0.1193,-0.1255,-0.1281,-0.1288,-0.1275,-0.1206,-0.1081,-0.0912,-0.0731,-0.048,-0.0118,0.0125,0.0377,0.0554,0.055,0.056,0.0547,0.0435,0.043,0.0595,0.055,0,0,0,0,0]}],[{"header":{"parameterUnit":"m.s-1","parameterCategory":2,"la1":30.2991,"la2":30.254,"lo1":-89.0895,"lo2":-89.0444,"dy":0.0017,"dx":0.0017,"nx":28,"ny":28,"refTime":"2024-03-15T21:00:00:Z","depth":"4","parameterNumber":2,"parameterNumberName":"U-component_of_CURRENTS"},"data":[0,0,0,0,0,0,0,0,0,0,0,0,0,0,0,0,0,0,0,0,0,0,0,0,0,0,0,0,0,0,0,0,0,0,0,0,0,0,0,0,0,0,0,0,0,0,0,0,0,0,0,0,0,0,0,0,0,0,-0.1341,-0.1342,0,-0.1411,-0.1411,-0.1411,-0.1434,-0.1434,-0.1434,-0.1434,-0.1475,-0.1476,-0.1477,0,0,0,0,0,0,0,0,0,0,0,0,0,-0.1237,-0.1238,-0.1341,-0.1342,-0.1344,-0.141,-0.1411,-0.1411,-0.1434,-0.1434,-0.1434,-0.1434,-0.1475,-0.1476,-0.1477,0,0,0,0,0,0,0,0,0,0,0,0,0,-0.1287,-0.1239,-0.1341,-0.1367,-0.137,-0.141,-0.1411,-0.1412,-0.1433,-0.1434,-0.1434,-0.1434,-0.1475,-0.1476,-0.1477,-0.1481,0,0,-0.1482,-0.1482,0,0,0,0,0,0,0,0,-0.1284,-0.129,-0.1361,-0.1365,-0.1369,-0.1418,-0.139,-0.1435,-0.1433,-0.1404,-0.1434,-0.1434,-0.1457,-0.146,-0.1465,-0.1483,-0.1485,-0.1482,-0.1483,-0.1483,-0.1484,0,0,0,0,0,0,0,-0.128,-0.1287,-0.1363,-0.1363,-0.1368,-0.1378,-0.1385,-0.1398,-0.1424,-0.1406,-0.141,-0.1425,-0.1458,-0.1464,-0.1466,-0.1486,-0.1482,-0.1483,-0.1484,-0.1484,-0.1566,-0.1568,0,0,0,0,0,0,-0.1282,-0.1284,-0.1361,-0.1366,-0.1332,-0.138,-0.1388,-0.1398,-0.1424,-0.143,-0.1425,-0.1426,-0.1461,-0.1465,-0.1468,-0.1532,-0.1483,-0.1485,-0.1485,-0.1565,-0.1567,-0.1568,0,0,0,0,0,0,-0.1279,-0.1288,-0.1359,-0.1331,-0.1341,-0.1382,-0.1393,-0.1399,-0.1431,-0.144,-0.1444,-0.1454,-0.1462,-0.1466,-0.1499,-0.1531,-0.1485,-0.1487,-0.1564,-0.1566,-0.1567,-0.1623,0,0,0,0,0,0,-0.1276,-0.1286,-0.1303,-0.1331,-0.1343,-0.1399,-0.1394,-0.1401,-0.1441,-0.1444,-0.1466,-0.1468,-0.1462,-0.1497,-0.1501,-0.1532,-0.1488,-0.1562,-0.1564,-0.1567,-0.1619,-0.1626,-0.1632,0,0,0,0,0,-0.1272,-0.1294,-0.1303,-0.1313,-0.1362,-0.1401,-0.1408,-0.1434,-0.1443,-0.1462,-0.1476,-0.1469,-0.1515,-0.1499,-0.1503,-0.1536,-0.1561,-0.1564,-0.1567,-0.1616,-0.1625,-0.1632,0,0,0,0,0,0,-0.126,-0.13,-0.131,-0.1344,-0.1378,-0.1407,-0.1433,-0.1451,-0.1477,-0.1485,-0.1485,-0.1489,-0.1532,-0.1526,-0.1508,-0.1567,-0.1538,-0.1541,-0.1574,-0.1582,-0.1589,-0.1598,-0.1489,0,0,0,0,0,-0.1265,-0.1288,-0.1329,-0.1355,-0.1377,-0.1409,-0.1433,-0.1453,-0.1478,-0.1492,-0.151,-0.1526,-0.1543,-0.1557,-0.1571,-0.1602,-0.1606,-0.1626,-0.1633,-0.1638,-0.1649,-0.1677,-0.1687,-0.1578,-0.1578,-0.1578,0,0,-0.1265,-0.1293,-0.1305,-0.1354,-0.1381,-0.1421,-0.1423,-0.1469,-0.1504,-0.1491,-0.1546,-0.1555,-0.1558,-0.1593,-0.1612,-0.1595,-0.1674,-0.1642,-0.1647,-0.1654,-0.1681,-0.1692,-0.1701,-0.158,-0.158,-0.1579,0,0,-0.1276,-0.1306,-0.1331,-0.1366,-0.142,-0.1444,-0.1465,-0.1513,-0.1539,-0.1585,-0.1587,-0.1619,-0.1645,-0.1658,-0.1663,-0.1716,-0.171,-0.1721,-0.1761,-0.1789,-0.1798,-0.1806,-0.1832,-0.1842,-0.1721,-0.1722,-0.1722,0,-0.1279,-0.1315,-0.1345,-0.1385,-0.142,-0.1459,-0.15,-0.1534,-0.1588,-0.1614,-0.1611,-0.1671,-0.1676,-0.1719,-0.1736,-0.1733,-0.1744,-0.173,-0.1798,-0.1806,-0.1813,-0.1838,-0.1848,-0.1725,-0.1724,-0.1724,-0.1724,0,-0.1303,-0.1347,-0.1369,-0.1427,-0.1468,-0.1512,-0.1565,-0.1613,-0.1648,-0.1677,-0.1739,-0.1749,-0.1783,-0.1791,-0.1778,-0.1837,-0.1827,-0.1804,-0.1777,-0.1827,-0.185,-0.186,-0.1729,-0.1728,-0.1727,-0.1726,0,0,-0.127,-0.1367,-0.1376,-0.1418,-0.1498,-0.1534,-0.1602,-0.167,-0.1717,-0.1767,-0.1826,-0.1858,-0.1871,-0.1878,-0.1877,-0.1898,-0.196,-0.1876,-0.1876,-0.1902,-0.2025,-0.1858,-0.1852,-0.1947,-0.1949,-0.1951,-0.2022,0,-0.1282,-0.1355,-0.1404,-0.1484,-0.1528,-0.1595,-0.1654,-0.1721,-0.1769,-0.1837,-0.187,-0.1922,-0.1901,-0.1925,-0.1947,-0.1963,-0.1987,-0.1943,-0.1973,-0.1974,-0.1818,-0.1858,-0.1957,-0.2029,-0.2032,-0.2033,-0.2034,0,-0.1282,-0.1337,-0.1411,-0.152,-0.1548,-0.1606,-0.1707,-0.1768,-0.1862,-0.1901,-0.1959,-0.1985,-0.205,-0.2013,-0.2074,-0.2047,-0.2045,-0.2046,-0.2048,-0.1878,-0.1824,-0.1967,-0.2052,-0.205,-0.2049,-0.2048,-0.2047,0,-0.1225,-0.1342,-0.1402,-0.1439,-0.1563,-0.1621,-0.1695,-0.1789,-0.1854,-0.1953,-0.2006,-0.2068,-0.2118,-0.2134,-0.213,-0.2118,-0.2175,-0.2157,-0.2008,-0.1997,-0.2103,-0.2093,-0.2194,-0.2193,-0.2193,-0.2193,-0.2193,0,-0.1201,-0.1254,-0.1391,-0.1423,-0.1514,-0.161,-0.1709,-0.1781,-0.19,-0.1967,-0.2042,-0.2086,-0.215,-0.2181,-0.2167,-0.2107,-0.2207,-0.2023,-0.2002,-0.2125,-0.2117,-0.211,-0.2099,-0.2196,-0.2195,-0.2195,-0.2194,0,-0.1112,-0.1205,-0.1284,-0.1429,-0.1488,-0.1551,-0.1731,-0.1799,-0.1912,-0.2004,-0.2047,-0.2142,-0.2163,-0.219,-0.2215,-0.2139,-0.2107,-0.2056,-0.2195,-0.218,-0.1912,-0.1904,-0.1923,-0.1917,-0.1913,-0.1909,-0.1906,0,-0.1071,-0.1101,-0.1263,-0.1333,-0.1408,-0.1535,-0.1628,-0.1783,-0.1848,-0.2004,-0.2031,-0.211,-0.214,-0.2053,-0.2086,-0.2049,-0.2007,-0.1995,-0.1944,-0.1906,-0.1885,-0.1884,-0.1882,-0.1899,-0.1897,-0.1896,-0.1895,0,-0.0979,-0.104,-0.1104,-0.1246,-0.1364,-0.1482,-0.1618,-0.166,-0.1818,-0.1946,-0.1954,-0.1953,-0.1965,-0.195,-0.1921,-0.1891,-0.2008,-0.1947,-0.1956,-0.1909,-0.1877,-0.186,-0.1863,-0.1879,-0.1882,-0.1883,-0.1884,0,-0.0906,-0.0925,-0.1027,-0.1143,-0.1291,-0.1383,-0.1474,-0.156,-0.1646,-0.1807,-0.1799,-0.1861,-0.1944,-0.1867,-0.1844,-0.1793,-0.1767,-0.171,-0.1731,-0.1749,-0.165,-0.1581,-0.1479,0,0,0,0,0,-0.0834,-0.0846,-0.0934,-0.1061,-0.1204,-0.1287,-0.1451,-0.1539,-0.1688,-0.1647,-0.1717,-0.1707,-0.1673,-0.1707,-0.1616,-0.1763,-0.1775,-0.165,-0.1721,-0.1792,-0.181,-0.1704,0,0,0,0,0,0,-0.0789,-0.0838,-0.0877,-0.0967,-0.1042,-0.1185,-0.1278,-0.1384,-0.1367,-0.1507,-0.1491,-0.1592,-0.1577,-0.1685,-0.1573,-0.1582,-0.159,-0.1695,-0.169,-0.1782,-0.1798,-0.1813,-0.171,0,0,0,0,0]},{"header":{"parameterUnit":"m.s-1","parameterCategory":2,"la1":30.2991,"la2":30.254,"lo1":-89.0895,"lo2":-89.0444,"dy":0.0017,"dx":0.0017,"nx":28,"ny":28,"refTime":"2024-03-15T21:00:00:Z","depth":"4","parameterNumber":3,"parameterNumberName":"V-component_of_CURRENTS"},"data":[0,0,0,0,0,0,0,0,0,0,0,0,0,0,0,0,0,0,0,0,0,0,0,0,0,0,0,0,0,0,0,0,0,0,0,0,0,0,0,0,0,0,0,0,0,0,0,0,0,0,0,0,0,0,0,0,0,0,-0.0238,-0.0238,0,-0.0204,-0.0204,-0.0204,-0.0191,-0.0191,-0.0191,-0.0191,-0.0119,-0.0117,-0.0115,0,0,0,0,0,0,0,0,0,0,0,0,0,-0.0244,-0.0245,-0.0238,-0.0237,-0.0237,-0.0204,-0.0204,-0.0203,-0.0191,-0.0191,-0.0191,-0.0191,-0.0119,-0.0117,-0.0115,0,0,0,0,0,0,0,0,0,0,0,0,0,-0.023,-0.0245,-0.0238,-0.0227,-0.0225,-0.0204,-0.0204,-0.0203,-0.0191,-0.0191,-0.0191,-0.0191,-0.012,-0.0117,-0.0114,-0.0093,0,0,-0.0105,-0.0104,0,0,0,0,0,0,0,0,-0.023,-0.0229,-0.0229,-0.0227,-0.0226,-0.0202,-0.018,-0.0164,-0.0191,-0.0204,-0.0191,-0.0191,-0.0143,-0.0138,-0.0132,-0.0089,-0.0086,-0.0105,-0.0103,-0.0102,-0.0101,0,0,0,0,0,0,0,-0.0232,-0.023,-0.0225,-0.0228,-0.0227,-0.0207,-0.0206,-0.0177,-0.0172,-0.0203,-0.0202,-0.0198,-0.0142,-0.0135,-0.013,-0.0085,-0.0105,-0.0102,-0.01,-0.0099,-0.0025,-0.0025,0,0,0,0,0,0,-0.0238,-0.0232,-0.0226,-0.0224,-0.0228,-0.0207,-0.0206,-0.021,-0.0173,-0.0168,-0.0198,-0.0197,-0.014,-0.0134,-0.0127,-0.0117,-0.0102,-0.0099,-0.0097,-0.0025,-0.0025,-0.0025,0,0,0,0,0,0,-0.0238,-0.0238,-0.0227,-0.0226,-0.0224,-0.0207,-0.0212,-0.0209,-0.0205,-0.017,-0.0164,-0.0198,-0.014,-0.0132,-0.0107,-0.0113,-0.0097,-0.0095,-0.0025,-0.0025,-0.0025,-0.0084,0,0,0,0,0,0,-0.0239,-0.0239,-0.0247,-0.0227,-0.0224,-0.0222,-0.0211,-0.0208,-0.0202,-0.0201,-0.0168,-0.0161,-0.0139,-0.0112,-0.0104,-0.0109,-0.0092,-0.0026,-0.0025,-0.0025,-0.0082,-0.0086,-0.0089,0,0,0,0,0,-0.0239,-0.025,-0.0248,-0.0247,-0.0235,-0.0223,-0.022,-0.0208,-0.0202,-0.0204,-0.018,-0.0162,-0.0104,-0.0109,-0.01,-0.0104,-0.0026,-0.0025,-0.0025,-0.0081,-0.0085,-0.0089,0,0,0,0,0,0,-0.0257,-0.0249,-0.0246,-0.0255,-0.0243,-0.0221,-0.0222,-0.021,-0.0194,-0.0194,-0.016,-0.0151,-0.0133,-0.0106,-0.0112,-0.008,-0.0062,-0.006,-0.0107,-0.0111,-0.0114,-0.0131,-0.009,0,0,0,0,0,-0.0266,-0.0273,-0.0258,-0.0265,-0.0261,-0.0242,-0.0236,-0.0228,-0.0209,-0.0202,-0.0176,-0.0147,-0.0123,-0.0109,-0.0082,-0.0063,-0.0023,-0.0058,-0.0062,-0.0065,-0.0071,-0.0015,-0.0015,-0.0024,-0.0024,-0.0024,0,0,-0.0274,-0.027,-0.0275,-0.0269,-0.0259,-0.0264,-0.0239,-0.0235,-0.0239,-0.0195,-0.0189,-0.0157,-0.012,-0.0103,-0.0092,-0.0083,-0.0038,-0.0064,-0.0067,-0.0072,-0.0015,-0.0014,-0.0013,-0.0024,-0.0024,-0.0024,0,0,-0.0297,-0.0292,-0.0308,-0.0303,-0.0294,-0.0282,-0.0283,-0.0263,-0.0255,-0.0242,-0.0212,-0.0186,-0.0147,-0.0124,-0.0107,-0.0109,-0.0058,-0.0096,-0.0127,-0.0073,-0.0072,-0.0071,-0.001,-0.0003,-0.0098,-0.0098,-0.0098,0,-0.0309,-0.0329,-0.0309,-0.0323,-0.0326,-0.0294,-0.0312,-0.0296,-0.0271,-0.0262,-0.0249,-0.0189,-0.016,-0.0136,-0.0141,-0.0119,-0.0074,-0.0119,-0.0079,-0.0077,-0.0074,-0.0012,-0.0003,-0.0101,-0.0101,-0.01,-0.01,0,-0.0344,-0.0362,-0.0369,-0.038,-0.0377,-0.0385,-0.0364,-0.0355,-0.0337,-0.0318,-0.0288,-0.0241,-0.0206,-0.019,-0.0169,-0.0139,-0.0106,-0.0091,-0.0073,-0.0077,-0.001,-0.0,-0.0105,-0.0104,-0.0103,-0.0102,0,0,-0.0368,-0.0393,-0.0396,-0.0416,-0.0411,-0.0412,-0.0414,-0.0404,-0.0401,-0.0365,-0.0352,-0.0309,-0.0275,-0.0252,-0.0211,-0.0167,-0.0111,-0.0127,-0.0123,-0.0074,0.002,-0.0002,0.0008,-0.0085,-0.0084,-0.0083,0.0063,0,-0.0405,-0.0454,-0.045,-0.0488,-0.0511,-0.0485,-0.0488,-0.0472,-0.0443,-0.0417,-0.0362,-0.0332,-0.03,-0.0278,-0.0231,-0.0135,-0.0088,-0.0152,0.0024,0.0029,0.0003,0.0017,-0.0079,0.0071,0.0073,0.0075,0.0077,0,-0.0441,-0.0473,-0.0528,-0.0552,-0.0557,-0.0571,-0.0565,-0.0562,-0.0515,-0.0488,-0.0443,-0.039,-0.0321,-0.0295,-0.0139,-0.0177,-0.0092,-0.0018,-0.0011,-0.0007,0.0025,0.0076,0.0096,0.0094,0.0093,0.0091,0.009,0,-0.0478,-0.0521,-0.0573,-0.0583,-0.0604,-0.0617,-0.0619,-0.0588,-0.0579,-0.0528,-0.0501,-0.0416,-0.0354,-0.0245,-0.0102,-0.0112,0.0077,0.0087,0.0148,0.0149,0.0151,0.0148,0.0184,0.0184,0.0184,0.0183,0.0183,0,-0.0519,-0.0556,-0.0597,-0.0627,-0.0673,-0.0664,-0.0687,-0.067,-0.0634,-0.0614,-0.054,-0.0493,-0.0337,-0.0214,-0.01,0.0059,0.0084,0.0145,0.0182,0.0125,0.0117,0.0159,0.0154,0.0189,0.0188,0.0187,0.0186,0,-0.0548,-0.058,-0.064,-0.0683,-0.0698,-0.0728,-0.074,-0.0742,-0.0699,-0.0665,-0.0648,-0.0525,-0.0366,-0.0208,-0.0007,0.007,0.0215,0.026,0.0197,0.0228,0.0255,0.0245,0.035,0.0351,0.0351,0.0351,0.0351,0,-0.0566,-0.0606,-0.0684,-0.0725,-0.075,-0.0788,-0.0809,-0.0786,-0.0773,-0.0682,-0.0659,-0.0512,-0.0417,-0.0137,0.0011,0.0234,0.0249,0.0327,0.0273,0.0245,0.0271,0.0261,0.0251,0.0352,0.0352,0.0352,0.0352,0,-0.0596,-0.0631,-0.068,-0.0772,-0.0818,-0.0857,-0.0875,-0.0864,-0.0813,-0.0775,-0.0652,-0.0514,-0.0333,-0.014,0.0035,0.0184,0.0277,0.0331,0.0331,0.0281,0.0249,0.0271,0.0262,0.0353,0.0353,0.0353,0.0353,0,-0.0608,-0.0651,-0.0728,-0.08,-0.0869,-0.0902,-0.0907,-0.087,-0.0845,-0.0728,-0.0691,-0.0501,-0.0385,-0.0165,-0.0009,0.014,0.0167,0.0201,0.0208,0.0209,0.0106,0.0041,0.0116,0,0,0,0,0,-0.0611,-0.0666,-0.0746,-0.0826,-0.0896,-0.0934,-0.0939,-0.0923,-0.0864,-0.0782,-0.073,-0.0566,-0.032,-0.0214,-0.0068,-0.0021,0.0178,0.0151,0.0217,0.0359,0.0358,0.0257,0,0,0,0,0,0,-0.0616,-0.0693,-0.0744,-0.0833,-0.0892,-0.0954,-0.0961,-0.0922,-0.0859,-0.0783,-0.065,-0.0558,-0.032,-0.0409,-0.0077,-0.0031,0.0025,0.0273,0.0276,0.036,0.0359,0.0358,0.0253,0,0,0,0,0]}]]